TimePDT,TemperatureF,Dew PointF,Humidity,Sea Level PressureIn,VisibilityMPH,Wind Direction,Wind SpeedMPH,Gust SpeedMPH,PrecipitationIn,Events,Conditions,WindDirDegrees,DateUTC
12:03 AM,48.2,42.8,82,29.83,0.5,South,18.4,24.2,N/A,,Haze,190,2013-10-09 07:03:00
12:07 AM,46.4,42.8,87,29.83,0.2,South,17.3,24.2,N/A,Fog,Fog,180,2013-10-09 07:07:00
12:36 AM,46.4,42.8,87,29.82,1.0,South,17.3,-,N/A,,Mist,180,2013-10-09 07:36:00
12:46 AM,46.4,42.8,87,29.82,0.5,South,20.7,25.3,N/A,Fog,Fog,180,2013-10-09 07:46:00
12:48 AM,46.0,42.1,86,29.70,0.5,South,19.6,25.3,N/A,Fog,Fog,180,2013-10-09 07:48:00
1:00 AM,46.4,42.8,87,29.81,0.2,South,20.7,26.5,N/A,Fog,Fog,180,2013-10-09 08:00:00
1:19 AM,46.4,42.8,87,29.81,0.8,South,23.0,28.8,N/A,,Overcast,180,2013-10-09 08:19:00
1:22 AM,46.4,42.8,87,29.80,1.8,South,18.4,28.8,N/A,,Overcast,190,2013-10-09 08:22:00
1:24 AM,46.4,42.8,87,29.80,4.0,South,18.4,28.8,N/A,,Overcast,190,2013-10-09 08:24:00
1:48 AM,46.0,41.0,83,29.67,8.0,South,17.3,26.5,N/A,,Overcast,190,2013-10-09 08:48:00
1:55 AM,46.4,41.0,81,29.79,4.0,South,16.1,28.8,N/A,,Haze,190,2013-10-09 08:55:00
1:58 AM,46.4,41.0,81,29.78,1.5,South,19.6,28.8,N/A,,Haze,190,2013-10-09 08:58:00
2:01 AM,46.4,41.0,81,29.78,0.8,SSW,17.3,28.8,N/A,,Haze,200,2013-10-09 09:01:00
2:15 AM,46.4,41.0,81,29.78,1.2,SSW,19.6,29.9,N/A,,Haze,200,2013-10-09 09:15:00
2:22 AM,46.4,41.0,81,29.77,0.5,South,21.9,28.8,N/A,,Haze,190,2013-10-09 09:22:00
2:27 AM,46.4,41.0,81,29.77,0.2,SSW,21.9,34.5,N/A,,Haze,200,2013-10-09 09:27:00
2:43 AM,44.6,41.0,87,29.76,0.5,South,23.0,33.4,N/A,Fog,Fog,190,2013-10-09 09:43:00
2:48 AM,45.0,41.0,86,29.64,1.5,South,23.0,33.4,N/A,,Overcast,190,2013-10-09 09:48:00
2:52 AM,44.6,41.0,87,29.75,3.0,SSW,23.0,32.2,N/A,,Overcast,200,2013-10-09 09:52:00
3:25 AM,44.6,39.2,81,29.75,9.0,South,21.9,36.8,N/A,,Mostly Cloudy,190,2013-10-09 10:25:00
3:31 AM,44.6,39.2,81,29.74,9.0,South,27.6,38.0,N/A,,Mostly Cloudy,190,2013-10-09 10:31:00
3:39 AM,44.6,41.0,87,29.74,4.0,South,28.8,39.1,N/A,,Mostly Cloudy,190,2013-10-09 10:39:00
3:41 AM,44.6,41.0,87,29.74,2.5,South,26.5,39.1,N/A,,Mostly Cloudy,180,2013-10-09 10:41:00
3:48 AM,45.0,41.0,86,29.63,1.2,South,25.3,36.8,N/A,,Mostly Cloudy,190,2013-10-09 10:48:00
4:00 AM,44.6,41.0,87,29.74,0.5,South,21.9,35.7,N/A,Fog,Fog,190,2013-10-09 11:00:00
4:07 AM,44.6,41.0,87,29.74,0.2,South,24.2,34.5,N/A,Fog,Fog,180,2013-10-09 11:07:00
4:12 AM,44.6,41.0,87,29.74,0.8,South,20.7,34.5,N/A,,Mist,190,2013-10-09 11:12:00
4:16 AM,44.6,39.2,81,29.74,1.5,South,20.7,31.1,N/A,,Haze,190,2013-10-09 11:16:00
4:20 AM,44.6,39.2,81,29.74,2.5,South,21.9,31.1,N/A,,Haze,190,2013-10-09 11:20:00
4:23 AM,44.6,39.2,81,29.74,1.2,South,25.3,35.7,N/A,,Haze,180,2013-10-09 11:23:00
4:32 AM,44.6,39.2,81,29.73,0.8,South,25.3,36.8,N/A,,Haze,180,2013-10-09 11:32:00
4:41 AM,44.6,39.2,81,29.73,0.2,South,24.2,35.7,N/A,,Haze,180,2013-10-09 11:41:00
4:48 AM,45.0,41.0,86,29.62,0.2,South,27.6,36.8,N/A,Fog,Fog,180,2013-10-09 11:48:00
5:04 AM,44.6,41.0,87,29.73,0.5,South,23.0,38.0,N/A,Fog,Fog,180,2013-10-09 12:04:00
5:13 AM,44.6,41.0,87,29.73,0.2,South,25.3,38.0,N/A,Fog,Fog,180,2013-10-09 12:13:00
5:32 AM,44.6,41.0,87,29.72,0.8,South,25.3,32.2,N/A,,Mist,180,2013-10-09 12:32:00
5:44 AM,44.6,41.0,87,29.72,0.2,South,23.0,31.1,N/A,Fog,Fog,180,2013-10-09 12:44:00
5:48 AM,45.0,41.0,86,29.62,0.2,South,25.3,35.7,N/A,Fog,Fog,180,2013-10-09 12:48:00
6:00 AM,44.6,41.0,87,29.72,0.5,South,21.9,31.1,N/A,Fog,Fog,180,2013-10-09 13:00:00
6:05 AM,44.6,41.0,87,29.72,0.2,South,24.2,29.9,N/A,Fog,Fog,180,2013-10-09 13:05:00
6:15 AM,44.6,41.0,87,29.72,0.8,South,21.9,29.9,N/A,,Mist,180,2013-10-09 13:15:00
6:31 AM,44.6,41.0,87,29.72,0.2,South,23.0,31.1,N/A,Fog,Fog,190,2013-10-09 13:31:00
6:48 AM,44.1,41.0,89,29.63,0.2,South,24.2,31.1,N/A,Fog,Fog,190,2013-10-09 13:48:00
7:48 AM,44.1,41.0,89,29.65,0.2,South,18.4,28.8,N/A,Fog,Fog,180,2013-10-09 14:48:00
8:19 AM,44.6,39.2,81,29.72,0.8,SSW,20.7,29.9,N/A,,Haze,200,2013-10-09 15:19:00
8:24 AM,44.6,39.2,81,29.72,1.0,SSW,19.6,33.4,N/A,,Mist,200,2013-10-09 15:24:00
8:46 AM,44.6,41.0,87,29.72,0.2,SSW,23.0,33.4,N/A,Fog,Fog,200,2013-10-09 15:46:00
8:48 AM,45.0,41.0,86,29.64,0.2,SSW,18.4,33.4,N/A,Fog,Fog,200,2013-10-09 15:48:00
9:28 AM,44.6,39.2,81,29.71,0.5,SSW,21.9,32.2,N/A,Fog,Fog,200,2013-10-09 16:28:00
9:37 AM,44.6,39.2,81,29.72,1.5,SSW,19.6,32.2,N/A,,Haze,200,2013-10-09 16:37:00
9:41 AM,44.6,39.2,81,29.71,3.0,SSW,20.7,33.4,N/A,,Haze,200,2013-10-09 16:41:00
9:48 AM,45.0,39.9,82,29.64,9.0,SSW,18.4,31.1,N/A,,Overcast,200,2013-10-09 16:48:00
9:57 AM,44.6,39.2,81,29.72,7.0,SSW,24.2,32.2,N/A,,Overcast,200,2013-10-09 16:57:00
10:11 AM,46.4,39.2,76,29.72,10.0,SSW,24.2,34.5,N/A,,Overcast,200,2013-10-09 17:11:00
10:48 AM,46.0,39.0,76,29.65,10.0,SSW,20.7,29.9,N/A,,Overcast,200,2013-10-09 17:48:00
11:25 AM,46.4,37.4,71,29.72,10.0,SSW,23.0,31.1,N/A,,Overcast,200,2013-10-09 18:25:00
11:48 AM,45.0,36.0,71,29.65,10.0,SSW,23.0,32.2,N/A,,Overcast,200,2013-10-09 18:48:00
12:25 PM,46.4,37.4,71,29.71,10.0,SSW,20.7,29.9,0.00,,Overcast,210,2013-10-09 19:25:00
12:48 PM,48.0,36.0,63,29.62,10.0,South,20.7,31.1,0.00,,Mostly Cloudy,180,2013-10-09 19:48:00
1:03 PM,50.0,35.6,58,29.69,10.0,SSW,16.1,27.6,N/A,,Mostly Cloudy,200,2013-10-09 20:03:00
1:15 PM,48.2,37.4,66,29.69,10.0,South,19.6,27.6,N/A,,Mostly Cloudy,170,2013-10-09 20:15:00
1:23 PM,46.4,37.4,71,29.69,10.0,South,20.7,28.8,N/A,,Overcast,180,2013-10-09 20:23:00
1:43 PM,46.4,37.4,71,29.67,10.0,SSE,20.7,26.5,N/A,,Overcast,160,2013-10-09 20:43:00
1:48 PM,48.0,37.0,66,29.60,10.0,South,23.0,31.1,N/A,,Mostly Cloudy,180,2013-10-09 20:48:00
2:11 PM,46.4,37.4,71,29.67,10.0,South,17.3,28.8,N/A,,Mostly Cloudy,190,2013-10-09 21:11:00
2:34 PM,42.8,37.4,81,29.67,1.8,SSE,15.0,26.5,0.02,Rain,Rain,160,2013-10-09 21:34:00
2:37 PM,44.6,39.2,81,29.67,1.0,South,15.0,25.3,0.02,Rain,Light Rain,170,2013-10-09 21:37:00
2:43 PM,44.6,39.2,81,29.67,1.0,South,15.0,-,0.02,Rain,Light Rain,180,2013-10-09 21:43:00
2:45 PM,44.6,39.2,81,29.67,2.0,South,16.1,-,0.02,Rain,Light Rain,170,2013-10-09 21:45:00
2:48 PM,44.1,39.0,82,29.61,5.0,South,16.1,23.0,0.02,,Haze,180,2013-10-09 21:48:00
2:51 PM,44.6,39.2,81,29.67,1.0,South,19.6,-,N/A,,Haze,180,2013-10-09 21:51:00
2:53 PM,44.6,39.2,81,29.67,0.5,South,18.4,-,N/A,,Haze,170,2013-10-09 21:53:00
2:56 PM,44.6,39.2,81,29.67,0.2,South,17.3,25.3,N/A,,Haze,190,2013-10-09 21:56:00
3:02 PM,44.6,39.2,81,29.67,0.2,South,16.1,26.5,N/A,,Haze,190,2013-10-09 22:02:00
3:07 PM,44.6,41.0,87,29.67,0.5,SSW,17.3,26.5,N/A,Fog,Fog,200,2013-10-09 22:07:00
3:11 PM,44.6,41.0,87,29.67,0.2,SSW,13.8,23.0,N/A,Fog,Fog,200,2013-10-09 22:11:00
3:30 PM,46.4,42.8,87,29.66,1.0,SSW,16.1,23.0,N/A,,Mist,200,2013-10-09 22:30:00
3:36 PM,46.4,41.0,81,29.66,0.2,South,19.6,26.5,N/A,,Haze,180,2013-10-09 22:36:00
3:40 PM,44.6,41.0,87,29.66,0.2,SSW,18.4,26.5,N/A,Fog,Fog,200,2013-10-09 22:40:00
3:48 PM,46.0,39.9,79,29.60,0.5,South,18.4,26.5,N/A,,Haze,180,2013-10-09 22:48:00
3:50 PM,46.4,39.2,76,29.67,2.0,South,19.6,26.5,N/A,,Haze,180,2013-10-09 22:50:00
3:52 PM,44.6,39.2,81,29.67,0.8,South,19.6,26.5,N/A,,Haze,180,2013-10-09 22:52:00
3:58 PM,44.6,39.2,81,29.67,0.2,South,17.3,26.5,N/A,,Haze,180,2013-10-09 22:58:00
4:11 PM,44.6,39.2,81,29.67,2.0,South,17.3,25.3,N/A,,Haze,180,2013-10-09 23:11:00
4:15 PM,44.6,39.2,81,29.67,6.0,South,15.0,25.3,N/A,,Haze,190,2013-10-09 23:15:00
4:24 PM,46.4,41.0,81,29.67,10.0,South,13.8,21.9,N/A,,Overcast,190,2013-10-09 23:24:00
4:39 PM,46.4,39.2,76,29.68,10.0,SE,13.8,21.9,N/A,,Overcast,130,2013-10-09 23:39:00
4:48 PM,45.0,36.0,71,29.63,10.0,Calm,Calm,-,N/A,,Overcast,0,2013-10-09 23:48:00
4:52 PM,42.8,35.6,76,29.69,10.0,Variable,5.8,19.6,N/A,,Overcast,0,2013-10-09 23:52:00
5:27 PM,37.4,32.0,81,29.69,1.8,Variable,5.8,-,0.06,Rain,Heavy Rain,0,2013-10-10 00:27:00
5:31 PM,37.4,32.0,81,29.70,1.2,North,3.5,-,0.12,Rain,Heavy Rain,10,2013-10-10 00:31:00
5:37 PM,37.4,32.0,81,29.70,2.0,NNE,6.9,-,0.16,Rain,Heavy Rain,30,2013-10-10 00:37:00
5:46 PM,37.4,33.8,87,29.70,5.0,NE,6.9,-,0.18,Rain,Light Rain,50,2013-10-10 00:46:00
5:48 PM,37.9,33.1,83,29.65,7.0,NE,6.9,-,0.18,Rain,Light Rain,40,2013-10-10 00:48:00
6:16 PM,39.2,33.8,81,29.70,10.0,NNE,10.4,20.7,0.00,,Overcast,20,2013-10-10 01:16:00
6:48 PM,39.9,28.9,65,29.65,10.0,NNW,15.0,27.6,0.00,,Overcast,340,2013-10-10 01:48:00
7:48 PM,41.0,30.0,65,29.66,10.0,NNW,8.1,20.7,N/A,,Scattered Clouds,330,2013-10-10 02:48:00
8:48 PM,39.0,30.0,70,29.68,10.0,NW,8.1,-,N/A,,Clear,320,2013-10-10 03:48:00
9:48 PM,39.0,32.0,76,29.71,10.0,NNW,11.5,-,N/A,,Clear,330,2013-10-10 04:48:00
10:48 PM,39.0,33.1,79,29.73,10.0,NNW,12.7,-,N/A,,Clear,340,2013-10-10 05:48:00
11:48 PM,39.9,33.1,77,29.73,10.0,NNW,21.9,-,N/A,,Clear,330,2013-10-10 06:48:00